Danbury, CT

3:01 PM EDT on June 26, 2017 (GMT -0400)
Danbury Municipal

Weather History for KDXR - January, 2013

Change the Weather History Date:

Monday, January 28, 2013

  Actual Average Record
Temperature  
Mean Temperature 24 °F -  
Max Temperature 33 °F 35 °F 57 °F (1974)
Min Temperature 16 °F 18 °F -2 °F (1961)
Degree Days  
Heating Degree Days 40    
Moisture  
Dew Point 23 °F    
Average Humidity 84    
Maximum Humidity 96    
Minimum Humidity 58    
Precipitation  
Precipitation 0.09 in - - ()
Sea Level Pressure  
Sea Level Pressure 30.25 in    
Wind  
Wind Speed 3 mph (South)    
Max Wind Speed 9 mph    
Max Gust Speed -    
Visibility 4 miles    
Events Fog , Rain , Snow    
Averages and records for this station are not official NWS values.
T = Trace of Precipitation, MM = Missing Value Source: NWS Daily Summary

Daily Weather History Graph

Daily Weather History Graph

Search for Another Location

Airport or City:

Trip Planner

Search our weather history database for the weather conditions in past years. The results will help you decide how hot, cold, wet, or windy it might be!

Date:

Astronomy

Jan. 28, 2013 Rise Set
Actual Time 7:08 AM EST 5:05 PM EST
Civil Twilight 6:39 AM EST 5:35 PM EST
Nautical Twilight 6:06 AM EST 6:08 PM EST
Astronomical Twilight 5:33 AM EST 6:40 PM EST
Moon 6:59 PM EST (1/28) 7:31 AM EST (1/28)
Length of Visible Light 10h 55m
Length of Day
9h 56m
Full, 98% of the Moon is Illuminated
Jan 28
Full
Feb 3
Last Quarter
Feb 10
New
Feb 17
First Quarter
Feb 25
Full

Hourly Weather History & Observations

Time (EST) Temp. Windchill Dew Point Humidity Pressure Visibility Wind Dir Wind Speed Gust Speed Precip Events Conditions
12:53 AM 16.0 °F - 10.0 °F 77% 30.50 in 10.0 mi Calm Calm - N/A   Clear
1:53 AM 17.1 °F - 10.9 °F 77% 30.49 in 10.0 mi Calm Calm - N/A   Clear
2:53 AM 17.1 °F - 10.9 °F 77% 30.46 in 10.0 mi Calm Calm - N/A   Clear
3:53 AM 17.1 °F - 10.0 °F 74% 30.45 in 10.0 mi Calm Calm - N/A   Scattered Clouds
4:53 AM 19.0 °F - 10.9 °F 71% 30.43 in 10.0 mi Calm Calm - N/A   Overcast
5:53 AM 21.0 °F - 10.9 °F 65% 30.42 in 10.0 mi Calm Calm - N/A   Mostly Cloudy
6:53 AM 21.0 °F - 12.9 °F 71% 30.42 in 10.0 mi Calm Calm - N/A   Overcast
7:53 AM 23.0 °F - 10.9 °F 60% 30.41 in 10.0 mi Calm Calm - N/A   Overcast
8:53 AM 25.0 °F - 12.0 °F 58% 30.40 in 8.0 mi Calm Calm - N/A   Overcast
9:36 AM 26.6 °F - 15.8 °F 64% 30.37 in 3.0 mi Calm Calm - 0.00 in Snow Light Snow
9:53 AM 26.1 °F 20.5 °F 18.0 °F 71% 30.39 in 2.0 mi SE 4.6 mph - 0.00 in Snow Light Snow
10:10 AM 26.6 °F 21.2 °F 19.4 °F 74% 30.36 in 2.5 mi SE 4.6 mph - 0.00 in Snow Light Snow
10:23 AM 26.6 °F 20.0 °F 21.2 °F 80% 30.35 in 1.5 mi SE 5.8 mph - 0.00 in Snow Light Snow
10:41 AM 26.6 °F 19.1 °F 21.2 °F 80% 30.33 in 2.0 mi SE 6.9 mph - 0.00 in Snow Light Snow
10:53 AM 26.1 °F 19.4 °F 21.9 °F 84% 30.35 in 3.0 mi SE 5.8 mph - 0.00 in Snow Light Snow
11:03 AM 26.6 °F 20.0 °F 21.2 °F 80% 30.32 in 2.0 mi SE 5.8 mph - 0.00 in Snow Light Snow
11:11 AM 26.6 °F 21.2 °F 21.2 °F 80% 30.31 in 1.8 mi SE 4.6 mph - 0.00 in Snow Light Snow
11:17 AM 26.6 °F 22.6 °F 23.0 °F 86% 30.31 in 0.8 mi SE 3.5 mph - 0.00 in Snow Light Snow
11:51 AM 28.4 °F 23.3 °F 24.8 °F 86% 30.28 in 1.2 mi SE 4.6 mph - 0.01 in Snow Light Snow
11:53 AM 28.0 °F 22.8 °F 24.1 °F 85% 30.30 in 1.2 mi SE 4.6 mph - 0.01 in Snow Light Snow
12:17 PM 28.4 °F 21.2 °F 24.8 °F 86% 30.26 in 0.8 mi SE 6.9 mph - 0.01 in Snow Light Snow
12:30 PM 28.4 °F 21.2 °F 24.8 °F 86% 30.24 in 0.5 mi SE 6.9 mph - 0.01 in Fog , Snow Snow
12:53 PM 28.0 °F 19.3 °F 26.1 °F 92% 30.22 in 0.8 mi SE 9.2 mph - 0.02 in Snow Light Snow
1:11 PM 28.4 °F 22.2 °F 26.6 °F 93% 30.19 in 1.2 mi South 5.8 mph - 0.00 in Snow Light Snow
1:50 PM 30.2 °F 23.4 °F 28.4 °F 93% 30.15 in 2.5 mi SSE 6.9 mph - 0.01 in   Overcast
1:53 PM 30.0 °F 25.2 °F 28.0 °F 92% 30.17 in 2.5 mi Variable 4.6 mph - 0.01 in Rain Light Freezing Rain
2:40 PM 32.0 °F 24.8 °F 30.2 °F 93% 30.11 in 3.0 mi SSW 8.1 mph - 0.02 in Rain Light Freezing Rain
2:53 PM 32.0 °F 24.8 °F 30.0 °F 92% 30.13 in 3.0 mi South 8.1 mph - 0.02 in Rain Light Freezing Rain
3:00 PM 32.0 °F 27.5 °F 30.2 °F 93% 30.11 in 4.0 mi South 4.6 mph - 0.00 in   Overcast
3:53 PM 32.0 °F 25.6 °F 30.0 °F 92% 30.11 in 4.0 mi SSW 6.9 mph - 0.02 in Rain Light Freezing Rain
4:09 PM 32.0 °F 26.4 °F 30.2 °F 93% 30.09 in 4.0 mi SSW 5.8 mph - 0.00 in Rain Light Freezing Rain
4:28 PM 33.8 °F 28.6 °F 30.2 °F 87% 30.08 in 6.0 mi SW 5.8 mph - 0.00 in   Overcast
4:53 PM 33.1 °F 28.7 °F 30.0 °F 89% 30.09 in 7.0 mi SW 4.6 mph - 0.00 in   Overcast
5:53 PM 33.1 °F 26.9 °F 30.0 °F 89% 30.07 in 7.0 mi SW 6.9 mph - N/A   Overcast
6:53 PM 32.0 °F 26.4 °F 30.9 °F 96% 30.06 in 6.0 mi WSW 5.8 mph - 0.01 in   Overcast
7:53 PM 32.0 °F 27.5 °F 30.9 °F 96% 30.05 in 5.0 mi SW 4.6 mph - N/A   Overcast
8:53 PM 32.0 °F 27.5 °F 30.9 °F 96% 30.03 in 4.0 mi WSW 4.6 mph - 0.00 in   Overcast
9:53 PM 32.0 °F 27.5 °F 30.9 °F 96% 30.01 in 3.0 mi WSW 4.6 mph - N/A   Overcast
10:53 PM 32.0 °F 28.7 °F 30.9 °F 96% 30.01 in 3.0 mi West 3.5 mph - N/A   Overcast
11:53 PM 32.0 °F 26.4 °F 30.9 °F 96% 30.00 in 3.0 mi WSW 5.8 mph - N/A   Overcast